Flag for U.S.A. Weather past 2 weeks in Cincinnati, Ohio, U.S.A.

Now
77 °F

Sunny.


Feels Like: 79 °F
Forecast: 63 / 81 °F
Wind: No wind

Location: Cincinnati Municipal Airport Lunken Field

Current Time: Jul 4, 2015 at 1:59:43 PM

Latest Report: Jul 4, 2015 at 12:53 PM


Visibility: 10 mi

Pressure: 30.00 "Hg

Humidity: 58%

Dew point: 61 °F

Location of CincinnatiLocation

Historic Weather in Cincinnati — Graph

°F

Cincinnati temperature yesterday

Maximum temperature yesterday: 75 °F (at 11:53 AM)
Minimum temperature yesterday: 66 °F (at 5:53 AM)
Average temperature yesterday: 70 °F

Past Weeks' High & Low Weather Summary

 TemperatureHumidityPressure
High88 °F (Jun 23, 2:53 PM)100% (Jun 20, 9:04 AM)30.17 "Hg (Jun 20, 9:04 AM)
Low58 °F (Jul 1, 4:58 AM)34% (Jun 24, 2:53 PM)29.72 "Hg (Jun 27, 7:53 AM)
Average71 °F81%29.92 "Hg
* Reported Jun 19 12:03 PM — Jul 4 12:53 PM, Cincinnati, Weather by CustomWeather, © 2015

Note: Actual official high and low records may vary slightly from our data, if they occured in-between our weather recording intervals... More about our weather records

Advertising

Cincinnati weather history for previous 24 hours

 ConditionsComfort  
Time TempWeatherWind HumidityBarometerVisibility
12:53 PM
Sat, Jul 4
77 °FSunny.No wind58%30.00 "Hg10 mi
11:53 AM75 °FScattered clouds.5 mph62%30.01 "Hg10 mi
10:53 AM74 °FScattered clouds.3 mph62%30.00 "Hg10 mi
9:53 AM72 °FPartly sunny.3 mph66%30.00 "Hg10 mi
8:53 AM70 °FOvercast.3 mph71%29.98 "Hg10 mi
7:53 AM67 °FOvercast.No wind87%29.96 "Hg9 mi
6:53 AM67 °FFog.5 mph90%29.94 "Hg5 mi
5:53 AM66 °FFog.5 mph93%29.92 "Hg6 mi
4:53 AM66 °FPassing clouds.3 mph93%29.91 "Hg7 mi
3:53 AM67 °FOvercast.3 mph93%29.90 "Hg8 mi
2:53 AM67 °FOvercast.No wind93%29.90 "Hg9 mi
1:53 AM67 °FOvercast.No wind93%29.90 "Hg9 mi
12:53 AM68 °FOvercast.No wind90%29.90 "Hg10 mi
11:53 PM
Fri, Jul 3
69 °FOvercast.3 mph81%29.89 "Hg10 mi
10:53 PM69 °FMostly cloudy.No wind84%29.89 "Hg10 mi
9:53 PM70 °FOvercast.No wind81%29.88 "Hg10 mi
9:00 PM70 °FMostly cloudy.5 mph81%29.88 "Hg10 mi
7:53 PM72 °FPartly sunny.6 mph78%29.86 "Hg10 mi
6:53 PM73 °FBroken clouds.8 mph76%29.85 "Hg8 mi
6:04 PM73 °FOvercast.7 mph76%29.87 "Hg9 mi
5:53 PM73 °FOvercast.7 mph76%29.85 "Hg10 mi
4:53 PM72 °FLight rain. Mostly cloudy.7 mph81%29.85 "Hg10 mi
3:53 PM74 °FOvercast.10 mph74%29.85 "Hg10 mi
2:53 PM75 °FOvercast.7 mph74%29.85 "Hg10 mi
1:53 PM75 °FOvercast.6 mph71%29.87 "Hg10 mi
Weather by CustomWeather, © 2015

See weather overviewHow to use our weather pages